Regional Weather Roundup
Issued by NWS

Home | Current Version | Previous Version | Graphics & Text | Print | Product List | Glossary On
Versions: 1 2 3 4 5 6 7 8 9 10 11 12 13 14 15 16 17 18 19 20 21 22 23 24 25 26 27 28 29 30 31 32 33 34 35 36 37 38 39 40 41 42 43 44 45 46 47 48 49 50
768
ASUS43 KDMX 262308
RWRIA

WEATHER ROUNDUP FOR IOWA
NATIONAL WEATHER SERVICE DES MOINES IA
600 PM CDT THU MAY 26 2016

NOTE: "FAIR" INDICATES FEW OR NO CLOUDS BELOW 12,000 FEET WITH NO
SIGNIFICANT WEATHER AND/OR OBSTRUCTIONS TO VISIBILITY.

* - THESE STATIONS ARE NOT NWS STATIONS...THUS NOT UNDER NWS
QUALITY CONTROL.  THEY ALSO DO NOT REPORT WEATHER SUCH
AS PRECIPITATION OR FOG.

IAZ001>003-012>014-020>022-031>034-043>046-270000-
   NORTHWEST IOWA

CITY           SKY/WX    TMP DP  RH WIND       PRES   REMARKS
CARROLL *      PTSUNNY   73  64  73 SW30      29.91R
CHEROKEE *     CLOUDY    72  59  64 NE5       29.81R
LE MARS *      SUNNY     75  59  57 NE6       29.81R
ORANGE CITY *  SUNNY     73  57  56 E5        29.82R
SHELDON *      SUNNY     73  57  56 E7        29.83R
SIOUX CITY     CLOUDY    75  60  59 E9        29.81R
SPENCER        CLOUDY    73  58  59 NE7       29.84R
STORM LAKE *   SUNNY     73  59  60 E10       29.84R
$$

IAZ055>058-069>071-079>083-090>094-270000-
   SOUTHWEST IOWA

CITY           SKY/WX    TMP DP  RH WIND       PRES   REMARKS
ATLANTIC *     HVY RAIN  64  63  94 N7        29.98R
AUDUBON *      LGT RAIN  66  61  82 S13G23    29.95R
CLARINDA *       N/A     68  64  88 MISG      29.91R FOG
COUNCIL BLFS * CLOUDY    64  59  82 E28G35    29.88F HAZE
CRESTON *      LGT RAIN  68  64  88 S8G14     29.91R
HARLAN  *      LGT RAIN  66  63  88 S15       29.97R
LAMONI         RAIN      65  61  87 S10       29.89S
RED OAK *      LGT RAIN  64  61  88 NW9       29.94R
SHENANDOAH *   RAIN      64  63  94 NE21      29.86S
$$

IAZ047>049-059>061-072>074-084-270000-
   CENTRAL IOWA

CITY           SKY/WX    TMP DP  RH WIND       PRES   REMARKS
AMES           CLOUDY    74  65  73 S8        29.85R
ANKENY *       SUNNY     73  68  83 S9        29.86R
BOONE *        PTSUNNY   75  64  69 S8        29.85R
CHARITON *     LGT RAIN  72  68  88 SW13G18   29.89R
DES MOINES     TSTM      74  68  81 S15       29.85S
GRINNELL*      CLOUDY    73  64  73 CALM      29.86R
KNOXVILLE *    LGT RAIN  73  70  88 SW6       29.86R
MARSHALLTOWN   CLOUDY    76  63  64 SE7       29.83R
NEWTON *       CLOUDY    75  66  73 CALM      29.85R
PELLA *        LGT RAIN  75  68  78 W3        29.87
PERRY *        LGT RAIN  73  66  78 S9        29.87R
$$

IAZ004>006-015-016-023>025-035-036-270000-
   NORTH CENTRAL IOWA

CITY           SKY/WX    TMP DP  RH WIND       PRES   REMARKS
ALGONA *       SUNNY     77  55  47 NE6       29.84R
CLARION *      SUNNY     77  63  61 SE5       29.85R
ESTHERVILLE    CLOUDY    73  53  49 CALM      29.84R
FORT DODGE *   CLOUDY    75  61  60 SE3       29.86R
MASON CITY     CLOUDY    76  63  64 S5        29.85R
FOREST CITY *  SUNNY     73  57  56 CALM      29.84S
WEBSTER CITY * MOSUNNY   75  64  69 SE5       29.82S
IOWA FALLS *     N/A     77  63  61 SE3       29.85S
$$

IAZ007>011-017>019-026>030-037>042-050>054-066-270000-
   NORTHEAST IOWA

CITY           SKY/WX    TMP DP  RH WIND       PRES   REMARKS
CEDAR RAPIDS   CLOUDY    80  62  54 CALM      29.83R HX  81
CHARLES CITY * SUNNY     79  57  47 CALM      29.84R HX  80
CLINTON *      MOSUNNY   82  64  54 SW6       29.83R HX  83
DECORAH *      SUNNY     79  57  47 CALM      29.83R HX  80
DUBUQUE        CLOUDY    79  60  52 N7        29.84R HX  80
MONTICELLO *   SUNNY     82  55  39 CALM      29.83R HX  82
OELWEIN *      SUNNY     79  57  47 SW5       29.86R HX  80
WATERLOO       CLOUDY    78  59  51 NW5       29.83R
$$

IAZ064-065-067-068-078-270000-
   EAST CENTRAL IOWA

CITY           SKY/WX    TMP DP  RH WIND       PRES   REMARKS
DAVENPORT      CLOUDY    83  61  47 SW5       29.83R HX  83
IOWA CITY      CLOUDY    83  60  45 CALM      29.83R HX  83
MT. PLEASANT * CLOUDY    82  64  54 S5        29.82F HX  84
MUSCATINE *    SUNNY     84  59  42 S9        29.81R HX  84
QUAD CITIES    CLOUDY    85  62  46 S6        29.81R HX  85
$$

IAZ062-063-075>077-085>089-095>099-270000-
   SOUTHEAST IOWA

CITY           SKY/WX    TMP DP  RH WIND       PRES   REMARKS
BURLINGTON     CLOUDY    79  68  69 S7        29.81S HX  81
FAIRFIELD *      N/A    N/A N/A N/A MISG        N/A
FORT MADISON * SUNNY     79  64  61 CALM      29.83S HX  81
KEOKUK *       SUNNY     79  66  65 S3        29.82R HX  81
OSKALOOSA *      N/A     77  64  65 S7        29.84R
OTTUMWA        CLOUDY    78  64  61 SW6       29.83R HX  80
WASHINGTON *   SUNNY     82  75  78 SW6       29.83S HX  89
$$

ABBREVIATIONS USED IN REMARKS
   TC - TEMPERATURES IN CELSIUS
  WCI - WIND CHILL INDEX
   HX - HEAT INDEX
  VSB - VISIBILITY
$$





USA.gov is the U.S. government's official web portal to all federal, state and local government web resources and services.